Time,TemperatureF,DewpointF,PressureIn,WindDirection,WindDirectionDegrees,WindSpeedMPH,WindSpeedGustMPH,Humidity,HourlyPrecipIn,Conditions,Clouds,dailyrainin,SolarRadiationWatts/m^2,SoftwareType,DateUTC
2013-01-29 00:03:00,64.0,63.0,-100.00,East,89,3.0,-999.0,94,0.00,,,-99.99,0.000000,,2013-01-29 05:03:00,
2013-01-29 00:12:00,64.0,62.0,-100.00,East,92,2.0,-999.0,94,0.00,,,-99.99,0.000000,,2013-01-29 05:12:00,
2013-01-29 00:21:00,64.0,62.0,-100.00,East,92,2.0,-999.0,94,0.00,,,-99.99,0.000000,,2013-01-29 05:21:00,
2013-01-29 00:32:00,64.0,62.0,-100.00,East,99,2.0,-999.0,94,0.00,,,-99.99,0.000000,,2013-01-29 05:32:00,
2013-01-29 00:42:00,64.0,62.0,-100.00,ESE,117,2.0,-999.0,94,0.00,,,-99.99,0.000000,,2013-01-29 05:42:00,
2013-01-29 00:52:00,64.0,62.0,-100.00,ESE,117,2.0,-999.0,94,0.00,,,-99.99,0.000000,,2013-01-29 05:52:00,
2013-01-29 01:02:00,64.0,62.0,-100.00,East,99,3.0,-999.0,95,0.00,,,-99.99,0.000000,,2013-01-29 06:02:00,
2013-01-29 01:11:00,64.0,62.0,-100.00,ESE,112,3.0,-999.0,95,0.00,,,-99.99,0.000000,,2013-01-29 06:11:00,
2013-01-29 01:21:00,64.0,62.0,-100.00,ESE,112,3.0,-999.0,95,0.00,,,-99.99,0.000000,,2013-01-29 06:21:00,
2013-01-29 01:32:00,64.0,63.0,-100.00,ESE,110,3.0,-999.0,95,0.00,,,-99.99,0.000000,,2013-01-29 06:32:00,
2013-01-29 01:42:00,64.0,62.0,-100.00,ESE,103,2.0,-999.0,95,0.00,,,-99.99,0.000000,,2013-01-29 06:42:00,
2013-01-29 01:52:00,64.0,62.0,-100.00,ESE,103,2.0,-999.0,95,0.00,,,-99.99,0.000000,,2013-01-29 06:52:00,
2013-01-29 02:01:00,64.0,62.0,-100.00,East,93,3.0,-999.0,95,0.00,,,-99.99,0.000000,,2013-01-29 07:01:00,
2013-01-29 02:11:00,64.0,62.0,-100.00,East,90,3.0,-999.0,95,0.00,,,-99.99,0.000000,,2013-01-29 07:11:00,
2013-01-29 02:21:00,64.0,62.0,-100.00,East,90,3.0,-999.0,95,0.00,,,-99.99,0.000000,,2013-01-29 07:21:00,
2013-01-29 02:32:00,64.0,63.0,-100.00,ESE,104,2.0,-999.0,95,0.00,,,-99.99,0.000000,,2013-01-29 07:32:00,
2013-01-29 02:42:00,64.0,63.0,-100.00,East,96,3.0,-999.0,95,0.00,,,-99.99,0.000000,,2013-01-29 07:42:00,
2013-01-29 02:52:00,64.0,63.0,-100.00,East,96,3.0,-999.0,95,0.00,,,-99.99,0.000000,,2013-01-29 07:52:00,
2013-01-29 03:02:00,64.0,63.0,-100.00,East,85,4.0,-999.0,96,0.00,,,-99.99,0.000000,,2013-01-29 08:02:00,
2013-01-29 03:11:00,64.0,63.0,-100.00,East,96,3.0,-999.0,96,0.00,,,-99.99,0.000000,,2013-01-29 08:11:00,
2013-01-29 03:21:00,64.0,63.0,-100.00,East,96,3.0,-999.0,96,0.00,,,-99.99,0.000000,,2013-01-29 08:21:00,
2013-01-29 03:31:00,64.0,63.0,-100.00,East,90,3.0,-999.0,96,0.00,,,-99.99,0.000000,,2013-01-29 08:31:00,
2013-01-29 03:42:00,64.0,63.0,-100.00,ENE,76,3.0,-999.0,96,0.00,,,-99.99,0.000000,,2013-01-29 08:42:00,
2013-01-29 03:52:00,64.0,63.0,-100.00,ENE,76,3.0,-999.0,96,0.00,,,-99.99,0.000000,,2013-01-29 08:52:00,
2013-01-29 04:01:00,63.0,62.0,-100.00,ENE,78,2.0,-999.0,96,0.00,,,-99.99,0.000000,,2013-01-29 09:01:00,
2013-01-29 04:11:00,63.0,62.0,-100.00,East,88,2.0,-999.0,96,0.00,,,-99.99,0.000000,,2013-01-29 09:11:00,
2013-01-29 04:21:00,63.0,62.0,-100.00,East,88,2.0,-999.0,96,0.00,,,-99.99,0.000000,,2013-01-29 09:21:00,
2013-01-29 04:32:00,63.0,62.0,-100.00,ESE,112,2.0,-999.0,96,0.00,,,-99.99,0.000000,,2013-01-29 09:32:00,
2013-01-29 04:42:00,63.0,62.0,-100.00,ESE,103,3.0,-999.0,96,0.00,,,-99.99,0.000000,,2013-01-29 09:42:00,
2013-01-29 04:52:00,63.0,62.0,-100.00,ESE,103,3.0,-999.0,96,0.00,,,-99.99,0.000000,,2013-01-29 09:52:00,
2013-01-29 05:01:00,63.0,63.0,-100.00,East,95,3.0,-999.0,96,0.00,,,-99.99,0.000000,,2013-01-29 10:01:00,
2013-01-29 05:11:00,64.0,63.0,-100.00,East,96,3.0,-999.0,96,0.00,,,-99.99,0.000000,,2013-01-29 10:11:00,
2013-01-29 05:21:00,64.0,63.0,-100.00,East,96,3.0,-999.0,96,0.00,,,-99.99,0.000000,,2013-01-29 10:21:00,
2013-01-29 05:32:00,64.0,63.0,-100.00,East,99,3.0,-999.0,96,0.00,,,-99.99,0.000000,,2013-01-29 10:32:00,
2013-01-29 05:41:00,64.0,63.0,-100.00,East,86,3.0,-999.0,96,0.00,,,-99.99,0.000000,,2013-01-29 10:41:00,
2013-01-29 05:52:00,64.0,63.0,-100.00,East,86,3.0,-999.0,96,0.00,,,-99.99,0.000000,,2013-01-29 10:52:00,
2013-01-29 06:02:00,64.0,63.0,-100.00,East,96,2.0,-999.0,96,0.00,,,-99.99,0.000000,,2013-01-29 11:02:00,
2013-01-29 06:11:00,64.0,63.0,-100.00,East,95,2.0,-999.0,97,0.00,,,-99.99,0.000000,,2013-01-29 11:11:00,
2013-01-29 06:22:00,64.0,63.0,-100.00,East,95,2.0,-999.0,97,0.00,,,-99.99,0.000000,,2013-01-29 11:22:00,
2013-01-29 06:32:00,64.0,63.0,-100.00,East,80,2.0,-999.0,97,0.00,,,-99.99,0.000000,,2013-01-29 11:32:00,
2013-01-29 06:42:00,64.0,63.0,-100.00,East,87,3.0,-999.0,97,0.00,,,-99.99,0.000000,,2013-01-29 11:42:00,
2013-01-29 06:53:00,64.0,63.0,-100.00,East,87,3.0,-999.0,97,0.00,,,-99.99,0.000000,,2013-01-29 11:53:00,
2013-01-29 07:02:00,64.0,63.0,-100.00,East,83,3.0,-999.0,97,0.00,,,-99.99,0.000000,,2013-01-29 12:02:00,
2013-01-29 07:12:00,64.0,63.0,-100.00,East,84,2.0,-999.0,97,0.00,,,-99.99,0.000000,,2013-01-29 12:12:00,
2013-01-29 07:22:00,64.0,63.0,-100.00,East,84,2.0,-999.0,97,0.00,,,-99.99,0.000000,,2013-01-29 12:22:00,
2013-01-29 07:33:00,64.0,63.0,-100.00,East,101,2.0,-999.0,97,0.00,,,-99.99,1.000000,,2013-01-29 12:33:00,
2013-01-29 07:43:00,64.0,63.0,-100.00,ESE,113,3.0,-999.0,97,0.00,,,-99.99,5.200000,,2013-01-29 12:43:00,
2013-01-29 07:53:00,64.0,63.0,-100.00,ESE,113,3.0,-999.0,97,0.00,,,-99.99,5.200000,,2013-01-29 12:53:00,
2013-01-29 08:02:00,64.0,63.0,-100.00,ESE,108,3.0,-999.0,97,0.00,,,-99.99,15.800000,,2013-01-29 13:02:00,
2013-01-29 08:12:00,64.0,63.0,-100.00,East,95,2.0,-999.0,97,0.00,,,-99.99,32.599998,,2013-01-29 13:12:00,
2013-01-29 08:22:00,64.0,63.0,-100.00,East,95,2.0,-999.0,97,0.00,,,-99.99,32.599998,,2013-01-29 13:22:00,
2013-01-29 08:32:00,64.0,63.0,-100.00,East,88,2.0,-999.0,97,0.00,,,-99.99,56.099998,,2013-01-29 13:32:00,
2013-01-29 08:43:00,65.0,64.0,-100.00,East,98,3.0,-999.0,97,0.00,,,-99.99,83.199997,,2013-01-29 13:43:00,
2013-01-29 08:52:00,65.0,64.0,-100.00,East,98,3.0,-999.0,97,0.00,,,-99.99,83.199997,,2013-01-29 13:52:00,
2013-01-29 09:02:00,65.0,64.0,-100.00,ESE,110,3.0,-999.0,97,0.00,,,-99.99,113.500000,,2013-01-29 14:02:00,
2013-01-29 09:12:00,65.0,65.0,-100.00,SE,125,2.0,-999.0,97,0.00,,,-99.99,152.100006,,2013-01-29 14:12:00,
2013-01-29 09:22:00,65.0,65.0,-100.00,SE,125,2.0,-999.0,97,0.00,,,-99.99,152.100006,,2013-01-29 14:22:00,
2013-01-29 09:33:00,66.0,65.0,-100.00,SE,136,3.0,-999.0,97,0.00,,,-99.99,171.300003,,2013-01-29 14:33:00,
2013-01-29 09:43:00,67.0,66.0,-100.00,SE,142,4.0,-999.0,97,0.00,,,-99.99,241.399994,,2013-01-29 14:43:00,
2013-01-29 09:53:00,67.0,66.0,-100.00,SE,142,4.0,-999.0,97,0.00,,,-99.99,241.399994,,2013-01-29 14:53:00,
2013-01-29 10:02:00,68.0,67.0,-100.00,SE,144,3.0,-999.0,97,0.00,,,-99.99,301.899994,,2013-01-29 15:02:00,
2013-01-29 10:12:00,68.0,68.0,-100.00,SSE,148,3.0,-999.0,97,0.00,,,-99.99,407.200012,,2013-01-29 15:12:00,
2013-01-29 10:22:00,68.0,68.0,-100.00,SSE,148,3.0,-999.0,97,0.00,,,-99.99,407.200012,,2013-01-29 15:22:00,
2013-01-29 10:33:00,69.0,68.0,-100.00,SSE,149,4.0,-999.0,96,0.00,,,-99.99,455.899994,,2013-01-29 15:33:00,
2013-01-29 10:43:00,71.0,69.0,-100.00,SSE,149,4.0,-999.0,95,0.00,,,-99.99,486.700012,,2013-01-29 15:43:00,
2013-01-29 10:53:00,71.0,69.0,-100.00,SSE,149,4.0,-999.0,95,0.00,,,-99.99,486.700012,,2013-01-29 15:53:00,
2013-01-29 11:02:00,72.0,70.0,-100.00,SSE,147,5.0,-999.0,93,0.00,,,-99.99,507.000000,,2013-01-29 16:02:00,
2013-01-29 11:12:00,74.0,69.0,-100.00,SSE,147,6.0,-999.0,84,0.00,,,-99.99,505.700012,,2013-01-29 16:12:00,
2013-01-29 11:23:00,74.0,69.0,-100.00,SSE,147,6.0,-999.0,84,0.00,,,-99.99,505.700012,,2013-01-29 16:23:00,
2013-01-29 11:32:00,75.0,68.0,-100.00,SE,141,7.0,-999.0,79,0.00,,,-99.99,532.000000,,2013-01-29 16:32:00,
2013-01-29 11:43:00,76.0,68.0,-100.00,SSE,147,5.0,-999.0,74,0.00,,,-99.99,432.100006,,2013-01-29 16:43:00,
2013-01-29 11:53:00,76.0,68.0,-100.00,SSE,147,5.0,-999.0,74,0.00,,,-99.99,432.100006,,2013-01-29 16:53:00,
2013-01-29 12:03:00,77.0,67.0,-100.00,SSE,152,5.0,-999.0,71,0.00,,,-99.99,475.299988,,2013-01-29 17:03:00,
2013-01-29 12:12:00,77.0,66.0,-100.00,SE,144,7.0,-999.0,69,0.00,,,-99.99,527.500000,,2013-01-29 17:12:00,
2013-01-29 12:22:00,77.0,66.0,-100.00,SE,144,7.0,-999.0,69,0.00,,,-99.99,527.500000,,2013-01-29 17:22:00,
2013-01-29 12:32:00,78.0,66.0,-100.00,SE,144,5.0,-999.0,68,0.00,,,-99.99,519.099976,,2013-01-29 17:32:00,
2013-01-29 12:42:00,79.0,67.0,-100.00,SE,144,5.0,-999.0,65,0.00,,,-99.99,704.000000,,2013-01-29 17:42:00,
2013-01-29 12:52:00,79.0,67.0,-100.00,SE,144,5.0,-999.0,65,0.00,,,-99.99,704.000000,,2013-01-29 17:52:00,
2013-01-29 13:04:00,79.0,66.0,-100.00,SSE,148,6.0,-999.0,64,0.00,,,-99.99,455.600006,,2013-01-29 18:04:00,
2013-01-29 13:12:00,78.0,66.0,-100.00,SSE,149,5.0,-999.0,66,0.00,,,-99.99,313.799988,,2013-01-29 18:12:00,
2013-01-29 13:22:00,78.0,66.0,-100.00,SSE,149,5.0,-999.0,66,0.00,,,-99.99,313.799988,,2013-01-29 18:22:00,
2013-01-29 13:33:00,78.0,66.0,-100.00,SE,144,5.0,-999.0,67,0.00,,,-99.99,321.799988,,2013-01-29 18:33:00,
2013-01-29 13:42:00,79.0,66.0,-100.00,SSE,150,5.0,-999.0,64,0.00,,,-99.99,399.799988,,2013-01-29 18:42:00,
2013-01-29 13:52:00,79.0,66.0,-100.00,SSE,150,5.0,-999.0,64,0.00,,,-99.99,399.799988,,2013-01-29 18:52:00,
2013-01-29 14:02:00,81.0,65.0,-100.00,SSE,149,4.0,-999.0,58,0.00,,,-99.99,504.000000,,2013-01-29 19:02:00,
2013-01-29 14:12:00,82.0,65.0,-100.00,SSE,165,3.0,-999.0,55,0.00,,,-99.99,640.700012,,2013-01-29 19:12:00,
2013-01-29 14:22:00,82.0,65.0,-100.00,SSE,165,3.0,-999.0,55,0.00,,,-99.99,640.700012,,2013-01-29 19:22:00,
2013-01-29 14:32:00,81.0,64.0,-100.00,SSE,152,4.0,-999.0,56,0.00,,,-99.99,277.299988,,2013-01-29 19:32:00,
2013-01-29 14:42:00,79.0,64.0,-100.00,SSE,152,3.0,-999.0,61,0.00,,,-99.99,273.100006,,2013-01-29 19:42:00,
2013-01-29 14:52:00,79.0,64.0,-100.00,SSE,152,3.0,-999.0,61,0.00,,,-99.99,273.100006,,2013-01-29 19:52:00,
2013-01-29 15:02:00,81.0,65.0,-100.00,SSE,148,4.0,-999.0,57,0.00,,,-99.99,426.100006,,2013-01-29 20:02:00,
2013-01-29 15:12:00,83.0,65.0,-100.00,SSE,160,3.0,-999.0,54,0.00,,,-99.99,473.799988,,2013-01-29 20:12:00,
2013-01-29 15:22:00,83.0,65.0,-100.00,SSE,160,3.0,-999.0,54,0.00,,,-99.99,473.799988,,2013-01-29 20:22:00,
2013-01-29 15:33:00,83.0,65.0,-100.00,SSE,155,4.0,-999.0,53,0.00,,,-99.99,539.599976,,2013-01-29 20:33:00,
2013-01-29 15:42:00,83.0,65.0,-100.00,SSE,160,3.0,-999.0,54,0.00,,,-99.99,397.299988,,2013-01-29 20:42:00,
2013-01-29 15:53:00,83.0,65.0,-100.00,SSE,160,3.0,-999.0,54,0.00,,,-99.99,397.299988,,2013-01-29 20:53:00,
2013-01-29 16:03:00,82.0,66.0,-100.00,SSE,147,5.0,-999.0,57,0.00,,,-99.99,372.100006,,2013-01-29 21:03:00,
2013-01-29 16:12:00,80.0,66.0,-100.00,SE,142,6.0,-999.0,63,0.00,,,-99.99,192.600006,,2013-01-29 21:12:00,
2013-01-29 16:22:00,80.0,66.0,-100.00,SE,142,6.0,-999.0,63,0.00,,,-99.99,192.600006,,2013-01-29 21:22:00,
2013-01-29 16:33:00,78.0,67.0,-100.00,SE,138,6.0,-999.0,67,0.00,,,-99.99,119.199997,,2013-01-29 21:33:00,
2013-01-29 16:42:00,78.0,67.0,-100.00,SE,142,6.0,-999.0,67,0.00,,,-99.99,118.599998,,2013-01-29 21:42:00,
2013-01-29 16:53:00,78.0,67.0,-100.00,SE,142,6.0,-999.0,67,0.00,,,-99.99,118.599998,,2013-01-29 21:53:00,
2013-01-29 17:03:00,78.0,67.0,-100.00,SE,141,6.0,-999.0,68,0.00,,,-99.99,93.699997,,2013-01-29 22:03:00,
2013-01-29 17:12:00,77.0,67.0,-100.00,SE,129,6.0,-999.0,70,0.00,,,-99.99,88.900002,,2013-01-29 22:12:00,
2013-01-29 17:22:00,77.0,67.0,-100.00,SE,129,6.0,-999.0,70,0.00,,,-99.99,88.900002,,2013-01-29 22:22:00,
2013-01-29 17:33:00,77.0,67.0,-100.00,ESE,121,5.0,-999.0,73,0.00,,,-99.99,63.900002,,2013-01-29 22:33:00,
2013-01-29 17:42:00,76.0,67.0,-100.00,ESE,120,5.0,-999.0,75,0.00,,,-99.99,35.599998,,2013-01-29 22:42:00,
2013-01-29 17:53:00,76.0,67.0,-100.00,ESE,120,5.0,-999.0,75,0.00,,,-99.99,35.599998,,2013-01-29 22:53:00,
2013-01-29 18:02:00,75.0,67.0,-100.00,ESE,122,6.0,-999.0,76,0.00,,,-99.99,15.800000,,2013-01-29 23:02:00,
2013-01-29 18:12:00,74.0,67.0,-100.00,ESE,123,5.0,-999.0,79,0.00,,,-99.99,7.000000,,2013-01-29 23:12:00,
2013-01-29 18:23:00,74.0,67.0,-100.00,ESE,123,5.0,-999.0,79,0.00,,,-99.99,7.000000,,2013-01-29 23:23:00,
2013-01-29 18:33:00,74.0,67.0,-100.00,ESE,122,5.0,-999.0,80,0.00,,,-99.99,1.800000,,2013-01-29 23:33:00,
2013-01-29 18:42:00,73.0,68.0,-100.00,SE,126,5.0,-999.0,82,0.00,,,-99.99,0.200000,,2013-01-29 23:42:00,
2013-01-29 18:53:00,73.0,68.0,-100.00,SE,126,5.0,-999.0,82,0.00,,,-99.99,0.200000,,2013-01-29 23:53:00,
2013-01-29 19:03:00,73.0,67.0,-100.00,SE,129,6.0,-999.0,82,0.00,,,-99.99,0.000000,,2013-01-30 00:03:00,
2013-01-29 19:12:00,73.0,67.0,-100.00,SE,130,6.0,-999.0,83,0.00,,,-99.99,0.000000,,2013-01-30 00:12:00,
2013-01-29 19:22:00,73.0,67.0,-100.00,SE,130,6.0,-999.0,83,0.00,,,-99.99,0.000000,,2013-01-30 00:22:00,
2013-01-29 19:32:00,72.0,67.0,-100.00,SE,130,5.0,-999.0,84,0.00,,,-99.99,0.000000,,2013-01-30 00:32:00,
2013-01-29 19:42:00,71.0,67.0,-100.00,ESE,121,6.0,-999.0,85,0.00,,,-99.99,0.000000,,2013-01-30 00:42:00,
2013-01-29 19:53:00,71.0,67.0,-100.00,ESE,121,6.0,-999.0,85,0.00,,,-99.99,0.000000,,2013-01-30 00:53:00,
2013-01-29 20:02:00,71.0,67.0,-100.00,SE,126,6.0,-999.0,86,0.00,,,-99.99,0.000000,,2013-01-30 01:02:00,
2013-01-29 20:12:00,71.0,67.0,-100.00,SE,128,7.0,-999.0,87,0.00,,,-99.99,0.000000,,2013-01-30 01:12:00,
2013-01-29 20:22:00,71.0,67.0,-100.00,SE,128,7.0,-999.0,87,0.00,,,-99.99,0.000000,,2013-01-30 01:22:00,
2013-01-29 20:32:00,70.0,67.0,-100.00,SE,128,6.0,-999.0,88,0.00,,,-99.99,0.000000,,2013-01-30 01:32:00,
2013-01-29 20:42:00,70.0,66.0,-100.00,SE,128,5.0,-999.0,89,0.00,,,-99.99,0.000000,,2013-01-30 01:42:00,
2013-01-29 20:52:00,70.0,66.0,-100.00,SE,128,5.0,-999.0,89,0.00,,,-99.99,0.000000,,2013-01-30 01:52:00,
2013-01-29 21:02:00,69.0,66.0,-100.00,SE,131,5.0,-999.0,90,0.00,,,-99.99,0.000000,,2013-01-30 02:02:00,
2013-01-29 21:12:00,69.0,66.0,-100.00,SE,134,6.0,-999.0,91,0.00,,,-99.99,0.000000,,2013-01-30 02:12:00,
2013-01-29 21:22:00,69.0,66.0,-100.00,SE,134,6.0,-999.0,91,0.00,,,-99.99,0.000000,,2013-01-30 02:22:00,
2013-01-29 21:33:00,69.0,66.0,-100.00,SE,133,6.0,-999.0,91,0.00,,,-99.99,0.000000,,2013-01-30 02:33:00,
2013-01-29 21:42:00,69.0,66.0,-100.00,SE,142,6.0,-999.0,91,0.00,,,-99.99,0.000000,,2013-01-30 02:42:00,
2013-01-29 21:53:00,69.0,66.0,-100.00,SE,142,6.0,-999.0,91,0.00,,,-99.99,0.000000,,2013-01-30 02:53:00,
2013-01-29 22:03:00,69.0,66.0,-100.00,SSE,147,5.0,-999.0,91,0.00,,,-99.99,0.000000,,2013-01-30 03:03:00,
2013-01-29 22:12:00,69.0,66.0,-100.00,SSE,151,5.0,-999.0,91,0.00,,,-99.99,0.000000,,2013-01-30 03:12:00,
2013-01-29 22:22:00,69.0,66.0,-100.00,SSE,151,5.0,-999.0,91,0.00,,,-99.99,0.000000,,2013-01-30 03:22:00,
2013-01-29 22:32:00,68.0,66.0,-100.00,SSE,148,4.0,-999.0,92,0.00,,,-99.99,0.000000,,2013-01-30 03:32:00,
2013-01-29 22:42:00,68.0,66.0,-100.00,SE,144,4.0,-999.0,92,0.00,,,-99.99,0.000000,,2013-01-30 03:42:00,
2013-01-29 22:52:00,68.0,66.0,-100.00,SE,144,4.0,-999.0,92,0.00,,,-99.99,0.000000,,2013-01-30 03:52:00,
2013-01-29 23:02:00,69.0,66.0,-100.00,SSE,149,4.0,-999.0,91,0.00,,,-99.99,0.000000,,2013-01-30 04:02:00,
2013-01-29 23:12:00,69.0,66.0,-100.00,SSE,149,4.0,-999.0,91,0.00,,,-99.99,0.000000,,2013-01-30 04:12:00,
2013-01-29 23:22:00,69.0,66.0,-100.00,SSE,149,4.0,-999.0,91,0.00,,,-99.99,0.000000,,2013-01-30 04:22:00,
2013-01-29 23:32:00,69.0,66.0,-100.00,SSE,153,4.0,-999.0,90,0.00,,,-99.99,0.000000,,2013-01-30 04:32:00,
2013-01-29 23:42:00,69.0,66.0,-100.00,SSE,155,4.0,-999.0,89,0.00,,,-99.99,0.000000,,2013-01-30 04:42:00,
2013-01-29 23:52:00,69.0,66.0,-100.00,SSE,155,4.0,-999.0,89,0.00,,,-99.99,0.000000,,2013-01-30 04:52:00,